JST216 YPPH-YPAD

Flight info

Callsign JST216
Flight time 2h 37m
Altitude 37000
Route HECTO Y135 DADRU Y39 ATNAR
Aircraft A20N/M-SDE2E3FGHIRWXY/LB1

Departure

Time 2026-04-28 15:03
Airport Perth International Airport (YPPH)

Arrival

Time 2026-04-28 17:40
Airport Adelaide International Airport (YPAD)
Time Latitude Longitude Altitude Speed Heading
2026-04-28 14:30 -31.94069 115.97115 68 ft 0 kts 194°
2026-04-28 14:50 -31.94057 115.97119 58 ft 3 kts 197°
2026-04-28 14:50 -31.94038 115.97126 63 ft 3 kts 202°
2026-04-28 14:51 -31.94019 115.97136 58 ft 3 kts 207°
2026-04-28 14:51 -31.94001 115.97147 57 ft 3 kts 213°
2026-04-28 14:51 -31.93985 115.97161 60 ft 3 kts 223°
2026-04-28 14:51 -31.93971 115.97178 60 ft 3 kts 242°
2026-04-28 14:52 -31.93966 115.97196 59 ft 1 kts 277°
2026-04-28 14:52 -31.93966 115.97199 60 ft 0 kts 280°
2026-04-28 14:56 -31.93962 115.97173 61 ft 8 kts 280°
2026-04-28 14:56 -31.93944 115.97089 57 ft 11 kts 284°
2026-04-28 14:56 -31.93926 115.97002 56 ft 12 kts 283°
2026-04-28 14:57 -31.93921 115.96911 62 ft 12 kts 248°
2026-04-28 14:57 -31.93961 115.96876 61 ft 11 kts 196°
2026-04-28 14:57 -31.94061 115.96847 60 ft 12 kts 195°
2026-04-28 14:57 -31.94153 115.96821 65 ft 13 kts 193°
2026-04-28 14:58 -31.94254 115.96792 63 ft 17 kts 194°
2026-04-28 14:58 -31.94356 115.96761 58 ft 9 kts 194°
2026-04-28 14:58 -31.94421 115.96743 63 ft 10 kts 193°
2026-04-28 14:58 -31.94482 115.96722 62 ft 10 kts 207°
2026-04-28 14:59 -31.94501 115.96635 59 ft 14 kts 285°
2026-04-28 14:59 -31.94482 115.96543 62 ft 7 kts 284°
2026-04-28 14:59 -31.94470 115.96485 62 ft 8 kts 283°
2026-04-28 14:59 -31.94456 115.96417 63 ft 10 kts 283°
2026-04-28 15:00 -31.94434 115.96312 67 ft 16 kts 283°
2026-04-28 15:00 -31.94407 115.96184 64 ft 9 kts 287°
2026-04-28 15:00 -31.94385 115.96140 61 ft 10 kts 320°
2026-04-28 15:00 -31.94288 115.96073 57 ft 14 kts 328°
2026-04-28 15:01 -31.94206 115.96013 58 ft 9 kts 329°
2026-04-28 15:01 -31.94169 115.95987 57 ft 7 kts 328°
2026-04-28 15:01 -31.94118 115.95950 62 ft 10 kts 332°
2026-04-28 15:01 -31.94070 115.95978 58 ft 6 kts 56°
2026-04-28 15:02 -31.94056 115.96007 61 ft 7 kts 61°
2026-04-28 15:02 -31.93976 115.96162 65 ft 52 kts 58°
2026-04-28 15:02 -31.93663 115.96769 58 ft 118 kts 59°
2026-04-28 15:02 -31.93143 115.97772 119 ft 163 kts 59°
2026-04-28 15:03 -31.92559 115.98883 808 ft 161 kts 59°
2026-04-28 15:03 -31.91954 116.00021 1508 ft 166 kts 58°
2026-04-28 15:03 -31.91326 116.01204 2220 ft 170 kts 58°
2026-04-28 15:03 -31.90701 116.02461 2730 ft 188 kts 59°
2026-04-28 15:04 -31.90011 116.03868 3140 ft 209 kts 58°
2026-04-28 15:04 -31.89239 116.05418 3533 ft 231 kts 57°
2026-04-28 15:04 -31.88392 116.07091 4116 ft 241 kts 57°
2026-04-28 15:04 -31.87531 116.08784 4616 ft 245 kts 57°
2026-04-28 15:05 -31.86647 116.10513 5371 ft 246 kts 57°
2026-04-28 15:05 -31.85808 116.12282 6099 ft 252 kts 64°
2026-04-28 15:05 -31.85251 116.14259 6774 ft 257 kts 76°
2026-04-28 15:05 -31.84873 116.16334 7391 ft 264 kts 76°
2026-04-28 15:06 -31.84459 116.18521 7728 ft 282 kts 75°
2026-04-28 15:06 -31.84019 116.20799 8475 ft 287 kts 75°
2026-04-28 15:06 -31.83584 116.23043 8996 ft 277 kts 75°
2026-04-28 15:06 -31.83149 116.25276 9053 ft 286 kts 75°
2026-04-28 15:07 -31.82694 116.27600 9557 ft 294 kts 75°
2026-04-28 15:07 -31.82234 116.29953 10374 ft 299 kts 75°
2026-04-28 15:07 -31.81749 116.32430 10641 ft 322 kts 76°
2026-04-28 15:07 -31.81229 116.35088 10854 ft 345 kts 76°
2026-04-28 15:08 -31.80676 116.37914 11228 ft 361 kts 76°
2026-04-28 15:08 -31.80111 116.40809 11927 ft 365 kts 76°
2026-04-28 15:08 -31.79539 116.43737 12626 ft 370 kts 76°
2026-04-28 15:08 -31.78956 116.46711 13323 ft 375 kts 76°
2026-04-28 15:09 -31.78368 116.49707 13982 ft 380 kts 76°
2026-04-28 15:09 -31.77768 116.52758 14597 ft 385 kts 76°
2026-04-28 15:09 -31.77167 116.55805 15202 ft 389 kts 75°
2026-04-28 15:09 -31.76544 116.58960 15456 ft 405 kts 75°
2026-04-28 15:10 -31.75894 116.62249 15629 ft 421 kts 75°
2026-04-28 15:10 -31.75220 116.65655 15937 ft 431 kts 75°
2026-04-28 15:10 -31.74537 116.69106 16489 ft 435 kts 75°
2026-04-28 15:10 -31.73848 116.72587 17044 ft 439 kts 75°
2026-04-28 15:11 -31.73152 116.76095 17571 ft 444 kts 75°
2026-04-28 15:11 -31.72444 116.79652 18121 ft 448 kts 75°
2026-04-28 15:11 -31.71733 116.83221 18619 ft 451 kts 75°
2026-04-28 15:11 -31.71015 116.86820 19127 ft 453 kts 75°
2026-04-28 15:12 -31.70293 116.90432 19626 ft 456 kts 75°
2026-04-28 15:12 -31.69564 116.94070 20111 ft 459 kts 75°
2026-04-28 15:12 -31.68830 116.97732 20583 ft 462 kts 75°
2026-04-28 15:12 -31.68091 117.01415 21054 ft 465 kts 75°
2026-04-28 15:13 -31.67454 117.05108 21502 ft 469 kts 82°
2026-04-28 15:13 -31.67383 117.08947 21940 ft 474 kts 94°
2026-04-28 15:13 -31.67971 117.12770 22374 ft 479 kts 106°
2026-04-28 15:13 -31.69090 117.16469 22791 ft 482 kts 110°
2026-04-28 15:14 -31.70282 117.20215 23218 ft 485 kts 110°
2026-04-28 15:14 -31.71448 117.23894 23615 ft 489 kts 110°
2026-04-28 15:14 -31.72633 117.27648 23968 ft 491 kts 110°
2026-04-28 15:14 -31.73824 117.31433 24314 ft 494 kts 109°
2026-04-28 15:15 -31.75015 117.35227 24644 ft 497 kts 109°
2026-04-28 15:15 -31.76211 117.39044 24984 ft 499 kts 109°
2026-04-28 15:15 -31.77414 117.42888 25302 ft 502 kts 109°
2026-04-28 15:15 -31.78618 117.46740 25631 ft 504 kts 109°
2026-04-28 15:16 -31.79828 117.50616 25944 ft 506 kts 109°
2026-04-28 15:16 -31.81041 117.54506 26239 ft 508 kts 109°
2026-04-28 15:16 -31.82258 117.58414 26532 ft 510 kts 109°
2026-04-28 15:16 -31.83478 117.62338 26777 ft 512 kts 109°
2026-04-28 15:17 -31.84702 117.66276 27005 ft 513 kts 108°
2026-04-28 15:17 -31.85928 117.70227 27206 ft 515 kts 108°
2026-04-28 15:17 -31.87158 117.74196 27379 ft 516 kts 108°
2026-04-28 15:17 -31.88386 117.78161 27542 ft 517 kts 108°
2026-04-28 15:18 -31.89619 117.82150 27730 ft 517 kts 108°
2026-04-28 15:18 -31.90848 117.86130 27935 ft 517 kts 108°
2026-04-28 15:18 -31.92072 117.90101 28151 ft 516 kts 108°
2026-04-28 15:18 -31.93292 117.94061 28424 ft 513 kts 108°
2026-04-28 15:19 -31.94497 117.97973 29193 ft 502 kts 108°
2026-04-28 15:19 -31.95685 118.01839 29582 ft 501 kts 107°
2026-04-28 15:19 -31.96873 118.05714 29771 ft 504 kts 107°
2026-04-28 15:19 -31.98050 118.09558 29965 ft 505 kts 107°
2026-04-28 15:20 -31.99241 118.13454 30150 ft 506 kts 107°
2026-04-28 15:20 -32.00435 118.17363 30298 ft 508 kts 107°
2026-04-28 15:20 -32.01631 118.21279 30425 ft 509 kts 107°
2026-04-28 15:20 -32.02829 118.25210 30585 ft 509 kts 107°
2026-04-28 15:21 -32.04020 118.29121 30976 ft 503 kts 107°
2026-04-28 15:21 -32.05185 118.32942 31851 ft 489 kts 107°
2026-04-28 15:21 -32.06324 118.36689 32405 ft 484 kts 107°
2026-04-28 15:21 -32.07582 118.40377 32734 ft 485 kts 114°
2026-04-28 15:22 -32.09153 118.43903 33037 ft 486 kts 116°
2026-04-28 15:22 -32.10749 118.47409 33338 ft 485 kts 116°
2026-04-28 15:22 -32.12339 118.50920 33635 ft 485 kts 116°
2026-04-28 15:22 -32.13926 118.54429 33950 ft 484 kts 116°
2026-04-28 15:23 -32.15509 118.57937 34214 ft 484 kts 116°
2026-04-28 15:23 -32.17090 118.61444 34425 ft 484 kts 116°
2026-04-28 15:23 -32.18670 118.64952 34628 ft 484 kts 116°
2026-04-28 15:23 -32.20246 118.68456 34827 ft 484 kts 116°
2026-04-28 15:24 -32.21829 118.71978 35027 ft 485 kts 116°
2026-04-28 15:24 -32.23408 118.75496 35210 ft 485 kts 116°
2026-04-28 15:24 -32.25011 118.79071 35389 ft 486 kts 116°
2026-04-28 15:24 -32.26592 118.82603 35553 ft 487 kts 117°
2026-04-28 15:25 -32.28177 118.86145 35720 ft 487 kts 117°
2026-04-28 15:25 -32.29763 118.89692 35886 ft 488 kts 117°
2026-04-28 15:25 -32.31348 118.93241 36056 ft 488 kts 117°
2026-04-28 15:25 -32.32932 118.96792 36208 ft 489 kts 117°
2026-04-28 15:26 -32.34519 119.00351 36362 ft 489 kts 117°
2026-04-28 15:26 -32.36102 119.03905 36524 ft 489 kts 117°
2026-04-28 15:26 -32.37688 119.07469 36678 ft 490 kts 117°
2026-04-28 15:26 -32.39274 119.11036 36826 ft 490 kts 117°
2026-04-28 15:27 -32.40860 119.14607 36979 ft 490 kts 117°
2026-04-28 15:27 -32.42447 119.18182 37091 ft 490 kts 118°
2026-04-28 15:27 -32.44030 119.21753 37096 ft 490 kts 118°
2026-04-28 15:28 -32.47196 119.28903 37096 ft 489 kts 117°
2026-04-28 15:28 -32.50346 119.36032 37101 ft 489 kts 117°
2026-04-28 15:29 -32.53496 119.43175 37102 ft 489 kts 117°
2026-04-28 15:29 -32.56638 119.50315 37102 ft 489 kts 117°
2026-04-28 15:30 -32.59778 119.57462 37105 ft 489 kts 117°
2026-04-28 15:30 -32.62914 119.64617 37106 ft 489 kts 117°
2026-04-28 15:31 -32.66044 119.71771 37114 ft 489 kts 117°
2026-04-28 15:31 -32.69171 119.78932 37120 ft 489 kts 117°
2026-04-28 15:32 -32.72293 119.86097 37121 ft 489 kts 117°
2026-04-28 15:32 -32.75418 119.93282 37123 ft 488 kts 117°
2026-04-28 15:33 -32.78511 120.00407 37121 ft 488 kts 117°
2026-04-28 15:33 -32.81620 120.07583 37126 ft 488 kts 117°
2026-04-28 15:34 -32.84717 120.14748 37122 ft 488 kts 117°
2026-04-28 15:34 -32.87812 120.21921 37122 ft 487 kts 117°
2026-04-28 15:35 -32.90906 120.29108 37117 ft 487 kts 117°
2026-04-28 15:35 -32.95533 120.39884 37120 ft 487 kts 117°
2026-04-28 15:36 -32.98112 120.45903 37117 ft 487 kts 116°
2026-04-28 15:36 -33.00581 120.53399 37117 ft 486 kts 104°
2026-04-28 15:37 -33.01951 120.61217 37114 ft 485 kts 98°
2026-04-28 15:37 -33.03143 120.69132 37119 ft 485 kts 99°
2026-04-28 15:38 -33.04335 120.77041 37118 ft 486 kts 99°
2026-04-28 15:38 -33.05516 120.84974 37124 ft 486 kts 98°
2026-04-28 15:39 -33.06692 120.92922 37121 ft 486 kts 98°
2026-04-28 15:39 -33.07862 121.00859 37121 ft 487 kts 98°
2026-04-28 15:40 -33.09028 121.08809 37128 ft 487 kts 98°
2026-04-28 15:40 -33.10189 121.16765 37129 ft 487 kts 98°
2026-04-28 15:41 -33.11347 121.24734 37137 ft 487 kts 98°
2026-04-28 15:41 -33.12500 121.32709 37135 ft 488 kts 98°
2026-04-28 15:42 -33.13649 121.40686 37135 ft 488 kts 98°
2026-04-28 15:42 -33.14790 121.48656 37132 ft 488 kts 98°
2026-04-28 15:43 -33.15929 121.56638 37131 ft 488 kts 98°
2026-04-28 15:43 -33.17062 121.64622 37127 ft 488 kts 98°
2026-04-28 15:44 -33.18190 121.72608 37124 ft 488 kts 98°
2026-04-28 15:44 -33.19312 121.80589 37122 ft 488 kts 98°
2026-04-28 15:45 -33.20493 121.88569 37118 ft 488 kts 101°
2026-04-28 15:45 -33.21922 121.96500 37117 ft 488 kts 101°
2026-04-28 15:46 -33.23344 122.04436 37117 ft 488 kts 101°
2026-04-28 15:46 -33.24732 122.12376 37120 ft 489 kts 101°
2026-04-28 15:47 -33.26098 122.20276 37119 ft 489 kts 101°
2026-04-28 15:47 -33.27469 122.28234 37120 ft 489 kts 100°
2026-04-28 15:48 -33.28833 122.36186 37122 ft 489 kts 100°
2026-04-28 15:48 -33.30195 122.44153 37121 ft 489 kts 100°
2026-04-28 15:49 -33.31550 122.52114 37121 ft 489 kts 100°
2026-04-28 15:49 -33.32903 122.60100 37124 ft 489 kts 100°
2026-04-28 15:50 -33.34249 122.68068 37121 ft 489 kts 100°
2026-04-28 15:50 -33.35592 122.76056 37124 ft 489 kts 100°
2026-04-28 15:51 -33.36929 122.84041 37119 ft 489 kts 100°
2026-04-28 15:51 -33.38261 122.92027 37121 ft 489 kts 100°
2026-04-28 15:52 -33.39588 123.00017 37118 ft 489 kts 100°
2026-04-28 15:52 -33.40908 123.07998 37117 ft 489 kts 100°
2026-04-28 15:53 -33.42225 123.15993 37114 ft 489 kts 100°
2026-04-28 15:53 -33.43528 123.23940 37110 ft 490 kts 100°
2026-04-28 15:54 -33.44842 123.31988 37112 ft 490 kts 99°
2026-04-28 15:54 -33.46138 123.39957 37111 ft 490 kts 99°
2026-04-28 15:55 -33.47435 123.47969 37112 ft 491 kts 99°
2026-04-28 15:55 -33.48730 123.56001 37117 ft 491 kts 99°
2026-04-28 15:56 -33.50023 123.64051 37119 ft 491 kts 99°
2026-04-28 15:56 -33.51302 123.72075 37169 ft 485 kts 101°
2026-04-28 15:57 -33.51923 123.75985 37000 ft 468 kts 101°
2026-04-28 15:57 -33.52521 123.79744 36998 ft 451 kts 101°
2026-04-28 15:57 -33.53682 123.87057 37001 ft 448 kts 101°
2026-04-28 15:58 -33.54851 123.94458 37000 ft 456 kts 101°
2026-04-28 15:58 -33.56018 124.01880 37000 ft 455 kts 101°
2026-04-28 15:59 -33.57187 124.09341 37000 ft 455 kts 101°
2026-04-28 15:59 -33.58350 124.16801 37000 ft 455 kts 101°
2026-04-28 16:00 -33.59509 124.24264 37000 ft 455 kts 101°
2026-04-28 16:00 -33.60664 124.31730 37000 ft 455 kts 101°
2026-04-28 16:01 -33.61814 124.39192 37000 ft 455 kts 101°
2026-04-28 16:01 -33.62960 124.46665 37000 ft 455 kts 101°
2026-04-28 16:02 -33.64094 124.54088 37000 ft 455 kts 101°
2026-04-28 16:02 -33.65231 124.61562 37000 ft 455 kts 101°
2026-04-28 16:03 -33.66362 124.69033 37000 ft 455 kts 100°
2026-04-28 16:03 -33.67491 124.76519 37000 ft 455 kts 100°
2026-04-28 16:04 -33.68614 124.83995 37001 ft 455 kts 100°
2026-04-28 16:04 -33.69733 124.91473 37001 ft 455 kts 100°
2026-04-28 16:05 -33.70852 124.98957 37001 ft 455 kts 100°
2026-04-28 16:05 -33.71957 125.06441 37001 ft 455 kts 100°
2026-04-28 16:06 -33.73057 125.13932 37001 ft 455 kts 100°
2026-04-28 16:06 -33.74158 125.21416 37001 ft 455 kts 100°
2026-04-28 16:07 -33.75256 125.28920 37001 ft 455 kts 100°
2026-04-28 16:08 -33.76891 125.40164 37001 ft 455 kts 100°
2026-04-28 16:08 -33.77975 125.47657 37001 ft 455 kts 100°
2026-04-28 16:09 -33.79586 125.58859 37001 ft 455 kts 100°
2026-04-28 16:10 -33.81192 125.70104 37001 ft 455 kts 100°
2026-04-28 16:10 -33.82797 125.81413 37001 ft 455 kts 100°
2026-04-28 16:11 -33.84904 125.96381 37001 ft 455 kts 99°
2026-04-28 16:12 -33.86477 126.07649 37001 ft 455 kts 99°
2026-04-28 16:13 -33.88039 126.18911 37000 ft 455 kts 99°
2026-04-28 16:14 -33.90109 126.33956 37001 ft 455 kts 99°
2026-04-28 16:15 -33.92157 126.48988 37000 ft 455 kts 99°
2026-04-28 16:15 -33.93168 126.56462 37001 ft 455 kts 99°
2026-04-28 16:16 -33.94686 126.67745 37000 ft 455 kts 99°
2026-04-28 16:17 -33.96195 126.79039 37001 ft 455 kts 99°
2026-04-28 16:17 -33.97194 126.86571 37001 ft 455 kts 99°
2026-04-28 16:18 -33.98188 126.94095 37001 ft 455 kts 99°
2026-04-28 16:18 -33.99179 127.01631 37001 ft 455 kts 99°
2026-04-28 16:19 -34.00165 127.09169 37001 ft 455 kts 99°
2026-04-28 16:19 -34.00981 127.15435 37001 ft 455 kts 99°
2026-04-28 16:20 -34.01959 127.22975 37001 ft 455 kts 99°
2026-04-28 16:20 -34.02931 127.30508 37001 ft 455 kts 99°
2026-04-28 16:21 -34.03900 127.38052 37001 ft 455 kts 99°
2026-04-28 16:21 -34.04865 127.45608 37001 ft 455 kts 99°
2026-04-28 16:22 -34.05824 127.53156 37001 ft 455 kts 99°
2026-04-28 16:22 -34.06777 127.60695 37001 ft 455 kts 99°
2026-04-28 16:23 -34.07727 127.68246 37001 ft 455 kts 99°
2026-04-28 16:23 -34.08673 127.75798 37001 ft 455 kts 99°
2026-04-28 16:24 -34.09614 127.83352 37000 ft 455 kts 98°
2026-04-28 16:24 -34.10549 127.90898 37001 ft 455 kts 98°
2026-04-28 16:25 -34.11480 127.98424 37000 ft 455 kts 98°
2026-04-28 16:25 -34.12405 128.05993 37000 ft 455 kts 98°
2026-04-28 16:26 -34.13319 128.13525 37001 ft 455 kts 98°
2026-04-28 16:26 -34.14242 128.21117 37000 ft 455 kts 98°
2026-04-28 16:27 -34.15153 128.28642 37001 ft 455 kts 98°
2026-04-28 16:28 -34.16516 128.40001 37001 ft 455 kts 98°
2026-04-28 16:28 -34.17415 128.47549 37000 ft 455 kts 98°
2026-04-28 16:29 -34.18760 128.58915 37001 ft 455 kts 98°
2026-04-28 16:30 -34.20088 128.70224 37001 ft 455 kts 98°
2026-04-28 16:30 -34.20971 128.77799 37001 ft 455 kts 98°
2026-04-28 16:31 -34.21849 128.85375 37001 ft 455 kts 98°
2026-04-28 16:31 -34.22724 128.92963 37001 ft 455 kts 98°
2026-04-28 16:32 -34.23590 129.00512 37001 ft 455 kts 98°
2026-04-28 16:32 -34.24886 129.11895 37001 ft 455 kts 98°
2026-04-28 16:33 -34.25599 129.18198 37001 ft 455 kts 98°
2026-04-28 16:33 -34.26594 129.27043 37001 ft 455 kts 98°
2026-04-28 16:34 -34.27442 129.34630 37001 ft 455 kts 98°
2026-04-28 16:34 -34.28286 129.42218 37001 ft 455 kts 98°
2026-04-28 16:35 -34.29123 129.49797 37000 ft 455 kts 98°
2026-04-28 16:35 -34.29957 129.57388 37001 ft 455 kts 98°
2026-04-28 16:36 -34.30787 129.64981 37001 ft 455 kts 98°
2026-04-28 16:36 -34.31610 129.72564 37000 ft 455 kts 97°
2026-04-28 16:37 -34.32430 129.80160 37001 ft 455 kts 97°
2026-04-28 16:38 -34.33651 129.91548 37000 ft 455 kts 97°
2026-04-28 16:38 -34.34459 129.99142 37001 ft 455 kts 97°
2026-04-28 16:39 -34.35262 130.06743 37001 ft 455 kts 97°
2026-04-28 16:39 -34.36061 130.14345 37000 ft 455 kts 97°
2026-04-28 16:40 -34.36850 130.21898 37001 ft 455 kts 97°
2026-04-28 16:40 -34.37639 130.29493 37001 ft 455 kts 97°
2026-04-28 16:41 -34.38424 130.37100 37000 ft 455 kts 97°
2026-04-28 16:41 -34.39204 130.44708 37001 ft 455 kts 97°
2026-04-28 16:42 -34.39978 130.52307 37001 ft 455 kts 97°
2026-04-28 16:42 -34.40749 130.59918 37001 ft 455 kts 97°
2026-04-28 16:43 -34.41515 130.67530 37001 ft 455 kts 97°
2026-04-28 16:43 -34.42276 130.75144 37001 ft 455 kts 97°
2026-04-28 16:44 -34.43033 130.82759 37001 ft 455 kts 97°
2026-04-28 16:44 -34.43784 130.90366 37001 ft 455 kts 97°
2026-04-28 16:45 -34.44531 130.97983 37001 ft 455 kts 97°
2026-04-28 16:45 -34.45274 131.05603 37001 ft 455 kts 97°
2026-04-28 16:46 -34.46006 131.13173 37000 ft 455 kts 97°
2026-04-28 16:46 -34.46739 131.20794 37001 ft 455 kts 97°
2026-04-28 16:47 -34.47468 131.28418 37001 ft 455 kts 97°
2026-04-28 16:47 -34.48191 131.36042 37000 ft 455 kts 97°
2026-04-28 16:48 -34.48913 131.43668 37001 ft 455 kts 97°
2026-04-28 16:48 -34.49630 131.51284 37001 ft 455 kts 97°
2026-04-28 16:49 -34.50333 131.58924 37000 ft 455 kts 96°
2026-04-28 16:49 -34.51037 131.66554 37001 ft 455 kts 96°
2026-04-28 16:50 -34.51741 131.74174 37001 ft 455 kts 96°
2026-04-28 16:50 -34.52435 131.81766 37000 ft 455 kts 96°
2026-04-28 16:51 -34.53127 131.89399 37001 ft 455 kts 96°
2026-04-28 16:51 -34.53813 131.97024 37001 ft 455 kts 96°
2026-04-28 16:52 -34.54496 132.04660 37000 ft 455 kts 96°
2026-04-28 16:52 -34.55173 132.12287 37001 ft 455 kts 96°
2026-04-28 16:53 -34.55846 132.19926 37001 ft 455 kts 96°
2026-04-28 16:53 -34.56514 132.27566 37001 ft 455 kts 96°
2026-04-28 16:54 -34.57177 132.35207 37001 ft 455 kts 96°
2026-04-28 16:54 -34.57836 132.42849 37001 ft 455 kts 96°
2026-04-28 16:55 -34.58490 132.50493 37000 ft 455 kts 96°
2026-04-28 16:55 -34.59139 132.58140 37001 ft 455 kts 96°
2026-04-28 16:56 -34.59784 132.65786 37001 ft 455 kts 96°
2026-04-28 16:56 -34.60419 132.73382 37000 ft 455 kts 96°
2026-04-28 16:57 -34.61054 132.81031 37001 ft 455 kts 96°
2026-04-28 16:57 -34.61684 132.88680 37001 ft 455 kts 96°
2026-04-28 16:58 -34.62310 132.96331 37001 ft 455 kts 96°
2026-04-28 16:58 -34.62930 133.03975 37001 ft 455 kts 96°
2026-04-28 16:59 -34.63545 133.11618 37001 ft 455 kts 96°
2026-04-28 16:59 -34.64156 133.19282 37000 ft 455 kts 96°
2026-04-28 17:00 -34.64761 133.26917 37001 ft 455 kts 96°
2026-04-28 17:00 -34.65364 133.34594 37001 ft 455 kts 96°
2026-04-28 17:01 -34.65962 133.42264 37001 ft 455 kts 96°
2026-04-28 17:01 -34.66551 133.49889 37001 ft 455 kts 95°
2026-04-28 17:02 -34.67140 133.57569 37001 ft 455 kts 95°
2026-04-28 17:02 -34.67720 133.65205 37001 ft 455 kts 95°
2026-04-28 17:03 -34.68583 133.76678 37001 ft 455 kts 95°
2026-04-28 17:03 -34.69058 133.83057 37001 ft 455 kts 95°
2026-04-28 17:04 -34.69906 133.94559 37001 ft 455 kts 95°
2026-04-28 17:05 -34.70743 134.06054 37001 ft 455 kts 95°
2026-04-28 17:06 -34.71567 134.17530 37001 ft 455 kts 95°
2026-04-28 17:06 -34.72384 134.29047 37001 ft 455 kts 95°
2026-04-28 17:07 -34.72918 134.36674 37001 ft 455 kts 95°
2026-04-28 17:07 -34.73451 134.44346 37000 ft 455 kts 95°
2026-04-28 17:08 -34.73980 134.52028 37001 ft 455 kts 95°
2026-04-28 17:08 -34.74503 134.59702 37001 ft 455 kts 95°
2026-04-28 17:09 -34.75021 134.67372 37000 ft 455 kts 95°
2026-04-28 17:09 -34.75534 134.75045 37001 ft 455 kts 95°
2026-04-28 17:10 -34.76042 134.82714 37001 ft 455 kts 95°
2026-04-28 17:10 -34.76547 134.90386 37000 ft 455 kts 95°
2026-04-28 17:11 -34.77047 134.98013 37001 ft 455 kts 95°
2026-04-28 17:11 -34.77540 135.05690 37001 ft 455 kts 95°
2026-04-28 17:12 -34.78023 135.13355 37001 ft 455 kts 95°
2026-04-28 17:12 -34.78506 135.21050 37001 ft 455 kts 95°
2026-04-28 17:13 -34.78987 135.28778 37001 ft 455 kts 94°
2026-04-28 17:13 -34.79460 135.36458 37000 ft 455 kts 94°
2026-04-28 17:14 -34.79926 135.44086 37001 ft 455 kts 94°
2026-04-28 17:14 -34.80392 135.51812 37001 ft 455 kts 94°
2026-04-28 17:15 -34.80851 135.59493 37001 ft 455 kts 94°
2026-04-28 17:15 -34.81305 135.67184 37001 ft 455 kts 94°
2026-04-28 17:16 -34.81752 135.74823 37001 ft 455 kts 94°
2026-04-28 17:16 -34.82196 135.82513 37001 ft 455 kts 94°
2026-04-28 17:17 -34.82636 135.90210 37001 ft 455 kts 94°
2026-04-28 17:17 -34.83066 135.97896 37000 ft 455 kts 93°
2026-04-28 17:18 -34.82892 136.05598 36999 ft 455 kts 86°
2026-04-28 17:18 -34.82475 136.13293 36999 ft 455 kts 86°
2026-04-28 17:19 -34.82066 136.20976 37000 ft 455 kts 86°
2026-04-28 17:19 -34.81649 136.28665 37000 ft 455 kts 86°
2026-04-28 17:20 -34.81297 136.35062 37000 ft 455 kts 86°
2026-04-28 17:20 -34.80797 136.44030 36851 ft 452 kts 86°
2026-04-28 17:21 -34.80583 136.47836 36420 ft 451 kts 86°
2026-04-28 17:21 -34.80368 136.51635 35820 ft 450 kts 86°
2026-04-28 17:21 -34.80151 136.55442 35110 ft 451 kts 86°
2026-04-28 17:22 -34.79713 136.63084 33601 ft 454 kts 86°
2026-04-28 17:22 -34.79493 136.66876 32845 ft 456 kts 86°
2026-04-28 17:22 -34.79269 136.70727 32067 ft 457 kts 86°
2026-04-28 17:23 -34.78816 136.78458 30461 ft 460 kts 86°
2026-04-28 17:23 -34.78587 136.82332 29794 ft 457 kts 86°
2026-04-28 17:23 -34.78359 136.86174 29214 ft 453 kts 86°
2026-04-28 17:23 -34.78131 136.89979 28631 ft 449 kts 86°
2026-04-28 17:24 -34.77905 136.93746 28045 ft 445 kts 86°
2026-04-28 17:24 -34.77679 136.97486 27459 ft 441 kts 86°
2026-04-28 17:24 -34.77455 137.01178 26884 ft 437 kts 86°
2026-04-28 17:24 -34.77232 137.04834 26305 ft 433 kts 86°
2026-04-28 17:25 -34.77009 137.08477 25734 ft 429 kts 86°
2026-04-28 17:25 -34.76565 137.15660 24597 ft 422 kts 86°
2026-04-28 17:25 -34.76345 137.19201 24028 ft 418 kts 86°
2026-04-28 17:26 -34.76126 137.22711 23463 ft 414 kts 86°
2026-04-28 17:26 -34.75908 137.26181 22903 ft 411 kts 86°
2026-04-28 17:26 -34.75690 137.29640 22341 ft 407 kts 86°
2026-04-28 17:26 -34.75474 137.33060 21783 ft 404 kts 86°
2026-04-28 17:27 -34.75258 137.36451 21228 ft 400 kts 86°
2026-04-28 17:27 -34.75043 137.39814 20674 ft 397 kts 86°
2026-04-28 17:27 -34.74832 137.43102 20125 ft 394 kts 85°
2026-04-28 17:27 -34.74619 137.46409 19583 ft 391 kts 85°
2026-04-28 17:28 -34.74407 137.49693 19032 ft 387 kts 85°
2026-04-28 17:28 -34.73985 137.56167 17951 ft 381 kts 85°
2026-04-28 17:28 -34.73776 137.59367 17425 ft 378 kts 85°
2026-04-28 17:29 -34.73601 137.62542 16886 ft 375 kts 89°
2026-04-28 17:29 -34.73758 137.65692 16347 ft 372 kts 98°
2026-04-28 17:29 -34.74295 137.68750 15813 ft 368 kts 107°
2026-04-28 17:30 -34.75779 137.74662 14774 ft 363 kts 107°
2026-04-28 17:30 -34.77216 137.80492 13751 ft 357 kts 107°
2026-04-28 17:30 -34.77924 137.83372 13241 ft 355 kts 107°
2026-04-28 17:31 -34.78630 137.86243 12730 ft 352 kts 107°
2026-04-28 17:31 -34.80019 137.91900 11714 ft 347 kts 107°
2026-04-28 17:32 -34.81388 137.97487 10738 ft 342 kts 107°
2026-04-28 17:32 -34.82065 138.00254 10239 ft 339 kts 107°
2026-04-28 17:32 -34.82721 138.02935 10029 ft 328 kts 107°
2026-04-28 17:32 -34.83356 138.05538 9897 ft 315 kts 107°
2026-04-28 17:33 -34.83967 138.08044 9773 ft 302 kts 107°
2026-04-28 17:33 -34.84551 138.10439 9474 ft 290 kts 107°
2026-04-28 17:33 -34.85196 138.12748 8911 ft 287 kts 115°
2026-04-28 17:33 -34.85834 138.14190 8519 ft 285 kts 123°
2026-04-28 17:34 -34.87492 138.16701 7943 ft 283 kts 131°
2026-04-28 17:34 -34.88750 138.18492 7574 ft 281 kts 131°
2026-04-28 17:34 -34.90009 138.20308 7193 ft 280 kts 130°
2026-04-28 17:34 -34.91260 138.22118 6813 ft 278 kts 130°
2026-04-28 17:35 -34.92501 138.23915 6447 ft 276 kts 130°
2026-04-28 17:35 -34.93707 138.25660 6280 ft 260 kts 130°
2026-04-28 17:35 -34.94836 138.27295 6133 ft 244 kts 130°
2026-04-28 17:35 -34.95897 138.28831 5907 ft 233 kts 131°
2026-04-28 17:36 -34.96936 138.30334 5491 ft 231 kts 131°
2026-04-28 17:36 -34.97967 138.31826 5054 ft 230 kts 130°
2026-04-28 17:36 -34.98979 138.33295 4797 ft 219 kts 130°
2026-04-28 17:36 -34.99887 138.34677 4722 ft 198 kts 122°
2026-04-28 17:37 -35.00347 138.36176 4566 ft 182 kts 104°
2026-04-28 17:37 -35.00646 138.37635 4245 ft 176 kts 104°
2026-04-28 17:37 -35.00934 138.39078 3827 ft 176 kts 104°
2026-04-28 17:37 -35.01219 138.40558 3324 ft 181 kts 102°
2026-04-28 17:38 -35.01364 138.42076 2928 ft 177 kts 92°
2026-04-28 17:38 -35.01267 138.43519 2510 ft 170 kts 74°
2026-04-28 17:38 -35.00682 138.44737 2071 ft 166 kts 45°
2026-04-28 17:38 -34.99852 138.45725 1690 ft 168 kts 46°
2026-04-28 17:39 -34.99141 138.46841 1307 ft 165 kts 56°
2026-04-28 17:39 -34.98491 138.47966 1036 ft 157 kts 51°
2026-04-28 17:39 -34.97130 138.49880 526 ft 146 kts 51°
2026-04-28 17:40 -34.96475 138.50822 277 ft 145 kts 48°
2026-04-28 17:40 -34.95822 138.51761 75 ft 145 kts 50°
2026-04-28 17:40 -34.95214 138.52655 20 ft 108 kts 51°
2026-04-28 17:40 -34.94932 138.53056 25 ft 48 kts 50°
2026-04-28 17:41 -34.94747 138.53332 25 ft 26 kts 50°
2026-04-28 17:41 -34.94646 138.53474 24 ft 17 kts 48°
2026-04-28 17:41 -34.94619 138.53513 22 ft 6 kts 49°
2026-04-28 17:41 -34.94587 138.53523 20 ft 5 kts 347°
2026-04-28 17:42 -34.94551 138.53486 20 ft 9 kts 310°
2026-04-28 17:42 -34.94528 138.53451 20 ft 9 kts 308°
2026-04-28 17:42 -34.94473 138.53398 19 ft 8 kts 11°
2026-04-28 17:42 -34.94426 138.53460 19 ft 11 kts 52°
2026-04-28 17:43 -34.94372 138.53537 23 ft 13 kts 49°
2026-04-28 17:43 -34.94310 138.53624 20 ft 11 kts 52°
2026-04-28 17:43 -34.94253 138.53661 21 ft 9 kts 337°
2026-04-28 17:43 -34.94202 138.53630 22 ft 5 kts
2026-04-28 17:44 -34.94172 138.53657 26 ft 6 kts 49°
2026-04-28 17:44 -34.94144 138.53700 27 ft 7 kts 52°
2026-04-28 17:44 -34.94107 138.53753 26 ft 9 kts 50°
2026-04-28 17:44 -34.94079 138.53794 30 ft 2 kts 52°
2026-04-28 17:45 -34.94067 138.53813 28 ft 4 kts 52°
2026-04-28 17:45 -34.94045 138.53837 27 ft 3 kts
2026-04-28 17:45 -34.94025 138.53823 28 ft 4 kts 318°
2026-04-28 17:45 -34.94008 138.53806 27 ft 5 kts 319°
2026-04-28 17:46 -34.94004 138.53800 27 ft 2 kts 316°
2026-04-28 17:46 -34.93991 138.53787 27 ft 2 kts 317°
2026-04-28 17:46 -34.93986 138.53781 27 ft 0 kts 320°
2026-04-28 17:46 -34.93978 138.53775 27 ft 1 kts 325°
2026-04-28 17:47 -34.93976 138.53773 27 ft 0 kts 325°